Regional Weather Roundup
Issued by NWS

Home | Current Version | Previous Version | Text Only | Print | Product List | Glossary On
Versions: 1 2 3 4 5 6 7 8 9 10 11 12 13 14 15 16 17 18 19 20 21 22 23 24 25 26 27 28 29 30 31 32 33 34 35 36 37 38 39 40 41 42 43 44 45 46 47 48 49 50
000
ASUS45 KCYS 160110
RWRWY

WYOMING REGIONAL WEATHER ROUNDUP
NATIONAL WEATHER SERVICE CHEYENNE WY
700 PM MDT MON SEP 15 2014

NOTE:  "FAIR" INDICATES FEW OR NO CLOUDS BELOW 12,000 FEET
WITH NO SIGNIFICANT WEATHER AND/OR OBSTRUCTIONS TO VISIBILITY.

WYZ001-160200-
YELLOWSTONE NATIONAL PARK

CITY           SKY/WX    TMP DP  RH WIND       PRES   REMARKS
LK YELLOWSTONE   N/A     62  29  28 W5        30.32S
W YELLOWSTONE  NOT AVBL

$$
WYZ002>013-054>058-071-098>099-160200-
NORTHERN WYOMING

CITY           SKY/WX    TMP DP  RH WIND       PRES   REMARKS
JACKSON        CLEAR     72  28  20 W9        30.20S
CODY           CLEAR     64  45  48 N5        30.13S
GREYBULL       CLEAR     74  39  28 NW8       30.04S
WORLAND        CLEAR     73  44  35 N5        30.04S
SHERIDAN       CLEAR     64  51  62 NW3       30.08S
BUFFALO        CLEAR     64  48  56 W9        30.14R
GILLETTE       CLEAR     66  45  46 SE6       30.10S
HULETT         FAIR      63  41  45 MISG      30.13
NEWCASTLE      FAIR      64  39  39 SE10      30.14

$$
WYZ014>020-022>026-101>103-160200-
CENTRAL WYOMING

CITY           SKY/WX    TMP DP  RH WIND       PRES   REMARKS
BIG PINEY      CLEAR     69  32  25 NW10      30.26R
PINEDALE       CLEAR     68  28  22 W8        30.26S
DUBOIS         FAIR      66  30  26 NW10      30.23S
LANDER         CLEAR     73  40  30 SE5       30.09F
RIVERTON       CLEAR     73  39  29 NE5       30.11S
CASPER         PTCLDY    73  35  25 S9        30.11S
DOUGLAS        CLEAR     66  44  45 SE12      30.14S

$$
WYZ021-027>030-104>119-160200-
SOUTHERN WYOMING

CITY           SKY/WX    TMP DP  RH WIND       PRES   REMARKS
EVANSTON       CLEAR     73  29  19 W13       30.28S
KEMMERER       CLEAR    N/A N/A N/A W10       30.28S
FORT BRIDGER   FAIR      76  29  17 NW13      30.29S
ROCK SPRINGS   PTCLDY    72  33  24 SW9       30.23S
DIXON          FAIR      68  40  35 W3        30.26S
RAWLINS        MOCLDY    72  32  23 SW13G23   30.24S
SARATOGA       FAIR      68  32  26 SW6       30.27F
LARAMIE        PTCLDY    62  43  49 S14       30.29F
CHEYENNE       CLEAR     61  42  49 S16       30.27S
TORRINGTON     CLEAR     66  45  46 SE15      30.13F
PINE BLUFFS    FAIR      61  45  55 S10       30.24S

$$


USA.gov is the U.S. government's official web portal to all federal, state and local government web resources and services.